[[{"header":{"parameterUnit":"m.s-1","parameterCategory":1,"la1":30.2991,"la2":30.254,"lo1":-89.0895,"lo2":-89.0444,"dy":0.0017,"dx":0.0017,"nx":28,"ny":28,"refTime":"2025-02-26T03:00:00:Z","depth":0,"parameterNumber":2,"parameterNumberName":"U-component_of_WINDS"},"data":[0,0,0,0,0,0,0,0,0,0,0,0,0,0,0,0,0,0,0,0,0,0,0,0,0,0,0,0,0,0,0,0,0,0,0,0,0,0,0,0,0,0,0,0,0,0,0,0,0,0,0,0,0,0,0,0,0,0,1.1725,1.1725,0,1.173,1.173,1.173,1.1656,1.1654,1.1652,1.165,1.166,1.1663,1.1665,0,0,0,0,0,0,0,0,0,0,0,0,0,1.1657,1.1659,1.1725,1.1725,1.1725,1.173,1.173,1.173,1.1657,1.1654,1.1652,1.1649,1.166,1.1662,1.1665,0,0,0,0,0,0,0,0,0,0,0,0,0,1.1677,1.1659,1.1725,1.1689,1.1685,1.173,1.173,1.173,1.1657,1.1654,1.1651,1.1648,1.1659,1.1662,1.1665,1.1745,0,0,1.1675,1.1676,0,0,0,0,0,0,0,0,1.1676,1.168,1.1694,1.1691,1.1688,1.1689,1.1709,1.1735,1.1658,1.1668,1.165,1.1647,1.1673,1.1675,1.1682,1.1746,1.1746,1.1675,1.1677,1.1679,1.168,0,0,0,0,0,0,0,1.1675,1.1679,1.1727,1.1694,1.169,1.1674,1.1674,1.1714,1.1687,1.1667,1.1662,1.1663,1.1671,1.1679,1.1682,1.1746,1.1675,1.1678,1.168,1.1681,1.1878,1.1881,0,0,0,0,0,0,1.1677,1.1678,1.1726,1.1727,1.1674,1.1678,1.1677,1.1692,1.1687,1.1683,1.1665,1.1659,1.1675,1.1678,1.1682,1.1776,1.1679,1.1682,1.1683,1.1875,1.1879,1.1882,0,0,0,0,0,0,1.1676,1.1682,1.1726,1.1701,1.1705,1.1682,1.1699,1.1693,1.1702,1.1686,1.1681,1.1679,1.1673,1.1678,1.173,1.1776,1.1683,1.1686,1.1871,1.1876,1.188,1.1966,0,0,0,0,0,0,1.1675,1.1682,1.1711,1.1702,1.1707,1.1773,1.1702,1.1696,1.1707,1.1699,1.1697,1.1694,1.1671,1.1726,1.1733,1.1779,1.1689,1.1867,1.1873,1.1879,1.1959,1.1973,1.1985,0,0,0,0,0,1.1673,1.1736,1.1713,1.1719,1.1742,1.1776,1.1778,1.1749,1.1711,1.1741,1.1731,1.1694,1.177,1.1732,1.174,1.1787,1.1864,1.1871,1.1878,1.1953,1.197,1.1985,0,0,0,0,0,0,1.1752,1.1734,1.1709,1.177,1.1775,1.1763,1.1799,1.1769,1.1785,1.1778,1.1742,1.1743,1.1802,1.1799,1.1757,1.1865,1.181,1.1819,1.1864,1.188,1.1893,1.1893,1.1691,0,0,0,0,0,1.1777,1.1804,1.1787,1.1843,1.1847,1.1823,1.1837,1.1814,1.1818,1.182,1.1813,1.182,1.1845,1.1862,1.1885,1.1958,1.1957,1.1994,1.2008,1.2018,1.2027,1.2067,1.2084,1.1906,1.1906,1.1906,0,0,1.1829,1.1822,1.1841,1.1859,1.186,1.1891,1.1825,1.186,1.1883,1.1825,1.1874,1.187,1.1875,1.1939,1.1967,1.1939,1.2076,1.2028,1.2037,1.2039,1.2076,1.2093,1.2108,1.1911,1.1911,1.191,0,0,1.1938,1.1935,1.1982,1.1984,1.1986,1.1969,1.1981,1.1974,1.1969,1.2017,1.1975,1.2003,1.2046,1.2052,1.2061,1.2174,1.2142,1.2183,1.2252,1.2291,1.2305,1.2317,1.2359,1.2374,1.2191,1.2191,1.2192,0,1.2002,1.2044,1.2011,1.2048,1.2058,1.2006,1.2055,1.2059,1.2069,1.2078,1.2047,1.2101,1.2101,1.2166,1.2194,1.2202,1.2216,1.2183,1.2305,1.2317,1.2328,1.2367,1.2383,1.2196,1.2196,1.2195,1.2195,0,1.2124,1.2154,1.2192,1.2201,1.2216,1.2259,1.2233,1.2252,1.2229,1.2217,1.2268,1.2266,1.2288,1.2301,1.2279,1.2364,1.2347,1.2311,1.2255,1.2351,1.2387,1.2402,1.2204,1.2202,1.22,1.2199,0,0,1.2283,1.2273,1.2288,1.2292,1.229,1.2314,1.2356,1.2375,1.2393,1.2402,1.2437,1.2476,1.2443,1.2453,1.2432,1.2466,1.2557,1.2426,1.2426,1.2451,1.2652,1.2679,1.2697,1.2536,1.2538,1.254,1.2652,0,1.239,1.2458,1.243,1.2502,1.253,1.2482,1.2519,1.2523,1.2514,1.2538,1.2528,1.2556,1.251,1.2516,1.2548,1.2539,1.2597,1.2531,1.257,1.2572,1.257,1.2715,1.2744,1.2849,1.2665,1.2668,1.267,0,1.2523,1.2536,1.2611,1.2605,1.2616,1.2649,1.2665,1.2689,1.2694,1.2684,1.2696,1.2667,1.271,1.2654,1.2714,1.2669,1.2684,1.2682,1.2685,1.2688,1.2626,1.2723,1.2881,1.2897,1.2691,1.269,1.2688,0,1.2633,1.2669,1.2719,1.2724,1.2718,1.2743,1.2742,1.2743,1.2758,1.2773,1.2782,1.2802,1.2814,1.2832,1.281,1.2771,1.2873,1.2815,1.2868,1.2869,1.2891,1.289,1.3055,1.29,1.29,1.29,1.29,0,1.2755,1.2803,1.2768,1.2798,1.2851,1.2819,1.2873,1.2867,1.2869,1.2899,1.286,1.2889,1.2859,1.2886,1.287,1.2922,1.2927,1.2922,1.2917,1.2926,1.2927,1.2935,1.2927,1.2904,1.2903,1.2902,1.2902,0,1.2886,1.2864,1.2915,1.2906,1.2905,1.2944,1.2937,1.2966,1.2954,1.2993,1.3,1.2982,1.3012,1.2992,1.3023,1.3012,1.308,1.3065,1.3078,1.3074,1.3128,1.3124,1.3304,1.3327,1.3158,1.3159,1.3161,0,1.2965,1.3001,1.2995,1.3012,1.3013,1.304,1.3054,1.3025,1.3042,1.305,1.3079,1.3105,1.3125,1.3176,1.3167,1.3191,1.3176,1.3238,1.3179,1.3187,1.3178,1.3176,1.318,1.325,1.3252,1.3253,1.3255,0,1.3109,1.3097,1.3117,1.3135,1.3152,1.3165,1.3175,1.3191,1.3162,1.3183,1.3212,1.3228,1.3259,1.3286,1.3307,1.3308,1.3278,1.3273,1.3287,1.3296,1.3302,1.33,1.3111,1.3269,1.3268,1.3267,1.3266,1.3265,1.3217,1.3246,1.3247,1.3272,1.3276,1.3287,1.3313,1.3305,1.3328,1.335,1.3332,1.3368,1.3374,1.3397,1.3403,1.3432,1.3407,1.3426,1.3431,1.3437,1.3444,1.3297,1.3435,1.3435,1.3435,1.3434,1.3434,0,1.3359,1.3357,1.338,1.3395,1.3415,1.3383,1.3392,1.3412,1.3443,1.345,1.347,1.3506,1.3532,1.3525,1.355,1.3575,1.3562,1.3582,1.358,1.3581,1.3465,1.3451,1.3593,1.3593,1.3593,1.3593,1.3593,1.3592,1.3435,1.3484,1.3472,1.3523,1.3521,1.3555,1.3563,1.3574,1.3579,1.3619,1.3641,1.3636,1.3638,1.3662,1.3686,1.3684,1.3695,1.3721,1.3714,1.3605,1.3589,1.3574,1.3561,1.3724,1.3724,1.3828,1.3829,1.383]},{"header":{"parameterUnit":"m.s-1","parameterCategory":1,"la1":30.2991,"la2":30.254,"lo1":-89.0895,"lo2":-89.0444,"dy":0.0017,"dx":0.0017,"nx":28,"ny":28,"refTime":"2025-02-26T03:00:00:Z","depth":0,"parameterNumber":3,"parameterNumberName":"V-component_of_WINDS"},"data":[0,0,0,0,0,0,0,0,0,0,0,0,0,0,0,0,0,0,0,0,0,0,0,0,0,0,0,0,0,0,0,0,0,0,0,0,0,0,0,0,0,0,0,0,0,0,0,0,0,0,0,0,0,0,0,0,0,0,0.0542,0.0542,0,0.0531,0.0531,0.053,0.0505,0.0505,0.0504,0.0504,0.0493,0.0494,0.0494,0,0,0,0,0,0,0,0,0,0,0,0,0,0.0543,0.0543,0.0542,0.0542,0.0542,0.0531,0.0531,0.053,0.0505,0.0505,0.0504,0.0504,0.0493,0.0494,0.0494,0,0,0,0,0,0,0,0,0,0,0,0,0,0.0538,0.0543,0.0542,0.0528,0.0527,0.0531,0.0531,0.053,0.0506,0.0505,0.0504,0.0503,0.0493,0.0494,0.0494,0.0511,0,0,0.0495,0.0495,0,0,0,0,0,0,0,0,0.0539,0.0538,0.053,0.0529,0.0527,0.0519,0.0527,0.0524,0.0506,0.0514,0.0504,0.0503,0.0502,0.0502,0.0502,0.0511,0.051,0.0495,0.0495,0.0495,0.0495,0,0,0,0,0,0,0,0.0539,0.0539,0.0538,0.053,0.0528,0.0522,0.0521,0.0526,0.0513,0.0513,0.0511,0.051,0.0502,0.0501,0.0501,0.051,0.0495,0.0495,0.0495,0.0495,0.0533,0.0534,0,0,0,0,0,0,0.0541,0.0539,0.0538,0.0537,0.0531,0.0523,0.0521,0.0522,0.0512,0.051,0.0511,0.0509,0.0501,0.0501,0.0501,0.0521,0.0495,0.0495,0.0496,0.0532,0.0533,0.0534,0,0,0,0,0,0,0.0541,0.0541,0.0538,0.0538,0.0537,0.0524,0.0525,0.0522,0.0522,0.0511,0.0508,0.0513,0.0501,0.05,0.0509,0.052,0.0496,0.0496,0.0531,0.0533,0.0534,0.0561,0,0,0,0,0,0,0.0541,0.0541,0.0548,0.0538,0.0537,0.0546,0.0526,0.0523,0.0523,0.052,0.0512,0.051,0.05,0.0508,0.0509,0.052,0.0496,0.053,0.0532,0.0533,0.0559,0.0563,0.0566,0,0,0,0,0,0.0542,0.0556,0.0548,0.0548,0.0544,0.0547,0.0547,0.0534,0.0524,0.053,0.0523,0.051,0.0518,0.0509,0.051,0.0521,0.0529,0.0531,0.0533,0.0557,0.0562,0.0566,0,0,0,0,0,0,0.0568,0.0555,0.0546,0.0557,0.0554,0.0543,0.0551,0.054,0.0539,0.0537,0.0522,0.052,0.0531,0.0527,0.0517,0.0538,0.0522,0.0524,0.054,0.0545,0.0548,0.055,0.0496,0,0,0,0,0,0.0575,0.0578,0.0566,0.0578,0.0576,0.0564,0.0564,0.0555,0.0551,0.0549,0.0542,0.0539,0.0541,0.0542,0.0543,0.0558,0.0556,0.0566,0.0569,0.0572,0.0575,0.0583,0.0587,0.054,0.054,0.054,0,0,0.059,0.0583,0.0586,0.0583,0.0579,0.0583,0.0563,0.0567,0.057,0.055,0.0558,0.0553,0.0548,0.0559,0.0564,0.0556,0.0587,0.0575,0.0577,0.0578,0.0585,0.059,0.0593,0.0541,0.0541,0.0541,0,0,0.062,0.0614,0.0623,0.062,0.0614,0.0605,0.0607,0.0598,0.0594,0.0601,0.0586,0.0589,0.0593,0.059,0.0589,0.0617,0.0606,0.0617,0.0637,0.0645,0.0649,0.0652,0.0663,0.0667,0.0619,0.062,0.062,0,0.0639,0.0644,0.063,0.0636,0.0635,0.0616,0.0625,0.0623,0.0617,0.0617,0.0608,0.0612,0.0607,0.0618,0.0625,0.0625,0.0627,0.0619,0.0649,0.0652,0.0655,0.0665,0.0669,0.0621,0.0621,0.0621,0.0621,0,0.0669,0.0672,0.0681,0.0676,0.0676,0.0683,0.0671,0.0672,0.0663,0.0656,0.0663,0.0657,0.0656,0.0658,0.0649,0.0668,0.0663,0.0652,0.0636,0.0661,0.0671,0.0674,0.0623,0.0623,0.0622,0.0622,0,0,0.0716,0.0702,0.0706,0.0703,0.0695,0.0698,0.0704,0.0703,0.0706,0.0702,0.0708,0.0711,0.07,0.0699,0.069,0.0696,0.072,0.0684,0.0684,0.0692,0.0741,0.0751,0.0755,0.0712,0.0713,0.0713,0.0742,0,0.0744,0.0755,0.0742,0.0756,0.0759,0.0741,0.0747,0.0743,0.0736,0.0738,0.073,0.0733,0.0718,0.0717,0.0723,0.0716,0.073,0.0713,0.0718,0.0718,0.0721,0.076,0.077,0.0798,0.0745,0.0746,0.0746,0,0.0779,0.0777,0.0791,0.0782,0.0783,0.0788,0.0787,0.0789,0.0783,0.0778,0.0777,0.0765,0.0771,0.0755,0.0764,0.0753,0.0754,0.0751,0.0751,0.0752,0.0735,0.0763,0.0806,0.0811,0.0752,0.0751,0.0751,0,0.0813,0.0814,0.0822,0.0821,0.081,0.0814,0.081,0.0804,0.0804,0.0803,0.0803,0.0802,0.0802,0.0802,0.079,0.0779,0.0801,0.0784,0.0797,0.0798,0.0804,0.0804,0.0849,0.0803,0.0803,0.0802,0.0802,0,0.0847,0.0856,0.0838,0.0843,0.0853,0.0838,0.0849,0.0843,0.0837,0.0842,0.0825,0.083,0.0814,0.0816,0.0807,0.0817,0.0816,0.0813,0.081,0.0815,0.0815,0.0816,0.0814,0.0804,0.0803,0.0803,0.0803,0,0.0887,0.0875,0.0883,0.0872,0.0869,0.0877,0.0868,0.0873,0.0864,0.087,0.087,0.0858,0.086,0.0848,0.0848,0.0842,0.0857,0.085,0.0858,0.0857,0.0872,0.0871,0.0919,0.0925,0.0875,0.0875,0.0875,0,0.091,0.0917,0.0906,0.0908,0.0904,0.0907,0.0907,0.0892,0.0893,0.0887,0.0893,0.0894,0.0894,0.0898,0.0889,0.089,0.0884,0.0901,0.0884,0.0888,0.0886,0.0886,0.0887,0.0905,0.0906,0.0906,0.0907,0,0.0952,0.0945,0.0946,0.0945,0.0945,0.0943,0.094,0.0943,0.0926,0.0928,0.093,0.093,0.093,0.0932,0.093,0.0926,0.0914,0.0912,0.0915,0.092,0.0925,0.0924,0.0869,0.0911,0.0911,0.091,0.091,0.091,0.0985,0.099,0.0984,0.0985,0.0981,0.0979,0.0983,0.0975,0.0976,0.0975,0.0966,0.097,0.0964,0.0961,0.0958,0.0961,0.0953,0.0957,0.0959,0.096,0.0963,0.0923,0.096,0.096,0.096,0.096,0.096,0,0.1027,0.1022,0.1023,0.1019,0.102,0.1008,0.1004,0.1006,0.1009,0.1005,0.1005,0.1008,0.1009,0.1,0.1,0.1004,0.0999,0.1005,0.1005,0.1004,0.097,0.0968,0.1009,0.1009,0.1009,0.1009,0.1009,0.1009,0.1049,0.1058,0.1051,0.1057,0.1052,0.1055,0.1054,0.1052,0.1049,0.1052,0.1053,0.1046,0.104,0.104,0.104,0.1038,0.1039,0.1047,0.1043,0.1011,0.1007,0.1002,0.1,0.1047,0.1047,0.1077,0.1077,0.1077]}]]